NOAA 16 DEB, 41087

Orbit data source: Space-Track

NOAA 16 DEB, 41087 is space debris in SSO originally from a launch on Thu, 21 Sep 2000 UTC launched from the Air Force Western Test Range (AFWTR). Debris objects in space refer to the collection of defunct objects orbiting the Earth. Examples of debris include non-operational satellites, rocket bodies, and fragments generated from explosions, collisions, or faulty payload assembly.

Loading next visibility...
Identifier
41087, 2000-055AW
Orbit
SSO
Country
Flag of USUS
Related business
Manufacturer
Unknown
Mission
Spacecraft
Bus & Motor
Unknown
Mass
Unknown
Launch date (UTC)
2000-09-21 (26 years ago)
Launch vehicle
Unknown
Launch site
Air Force Western Test Range (AFWTR)
Object type
Payload
Rocket body
Debris
Shape & HBR
Unknown shape, 0.1 m
Radar Cross Section
Small (<0.1 m²)

Expand to show TLE details & history
Last TLE update: 6 hours ago

TLE from 6 hours ago
0 NOAA 16 DEB
1 41087U 00055AW  26126.51718546  .00000860  00000-0  47759-3 0  9993
2 41087  98.5522 141.2174 0012121 285.5851  74.3985 14.13607672536843
Epoch: 2026-05-06T12:24Z
TLE epoch observation values (Epoch: 2026-05-06T12:24:44.823Z)
Latitude
0.00003°
Longitude
90.65409°
Altitude
847.617 km
Speed
7.43 km/s
True Right ascension
09h 24m 52s
True Declination
0° 00' 00"
Sunlit
Object was in daylight at epoch
Visualization orbit readout
Latitude
Unknown
Longitude
Unknown
Altitude
Unknown
Speed
Unknown
Apparent Right ascension
Unknown
Apparent Declination
Unknown
Sunlit
N/A
Visualization observer readout
Local Sidereal Time
02:15:08
Azimuth
Unknown
Elevation
Unknown
Doppler factor
Unknown
Orbital elements
Apogee altitude
852.966 km
Perigee altitude
835.458 km
Semi-major axis
7,222.349 km
Eccentricity
0.00121
Inclination
98.5522°
RAAN
141.2174°
Arg. of periapsis
285.5851°
True anomaly
74.53233°
Mean anomaly
74.3985°
Eccentric anomaly
74.46541°
Mean motion
3.53611 °/min
Orbital period
101.81 mins
BSTAR
0.00047759
Loading maneuver chart data...
Computing Atmospheric mass density...
Loading historical data...
Loading historical data...
Loading historical data...
Loading historical data...
Loading historical data...
Loading historical data...
Loading historical data...

Documentation

Showing up to 5 results
|